Date,Time,Wetness (Wet Dry or Ice),Wind Speed (m/s),Temperature (C),Humidity (%),Pressure (mb),Radiation (W/m^2)
2020-07-04,23:25:00,DRY,1.90,18.70,9.0,779.00,1.2
2020-07-04,23:30:00,DRY,0.60,18.30,9.7,779.00,1.4
2020-07-04,23:35:00,DRY,1.35,18.35,10.0,779.00,1.7
2020-07-04,23:40:00,DRY,1.57,18.20,10.0,779.00,0.4
2020-07-04,23:45:00,DRY,2.75,18.10,10.0,779.00,0.9
2020-07-04,23:50:00,DRY,3.57,18.63,9.3,779.00,1.1
2020-07-04,23:55:00,DRY,1.60,18.45,10.0,779.00,0.4
2020-07-05,00:00:00,DRY,2.70,18.20,10.0,779.00,0.6
2020-07-05,00:05:00,DRY,3.40,18.25,10.0,778.50,1.2
2020-07-05,00:10:00,DRY,2.70,18.67,9.0,778.33,1.3
2020-07-05,00:15:00,DRY,3.25,18.75,9.5,778.00,1.2
2020-07-05,00:20:00,DRY,3.27,18.60,10.0,778.00,0.9
2020-07-05,00:25:00,DRY,2.05,18.65,10.0,778.00,1.6
2020-07-05,00:30:00,DRY,3.97,18.70,9.7,778.00,1.1
2020-07-05,00:35:00,DRY,3.65,19.10,9.0,778.00,1.1
2020-07-05,00:40:00,DRY,3.17,18.90,9.0,778.00,0.8
2020-07-05,00:45:00,DRY,3.40,19.00,9.0,778.00,1.3
2020-07-05,00:50:00,DRY,3.53,19.07,9.0,778.00,0.9
2020-07-05,00:55:00,DRY,3.70,18.90,9.0,778.00,1.5
2020-07-05,01:00:00,DRY,4.20,19.17,9.0,778.00,0.9
2020-07-05,01:05:00,DRY,5.90,19.00,9.0,778.00,1.1
2020-07-05,01:10:00,DRY,5.03,19.37,9.3,778.00,1.0
2020-07-05,01:15:00,DRY,6.35,19.60,10.0,778.00,1.8
2020-07-05,01:20:00,DRY,5.37,19.53,10.0,778.00,1.4
2020-07-05,01:25:00,DRY,5.85,19.30,9.0,778.00,1.1
2020-07-05,01:30:00,DRY,3.77,19.30,10.0,778.00,1.3
2020-07-05,01:35:00,DRY,3.90,19.35,10.5,778.00,1.1
2020-07-05,01:40:00,DRY,4.13,19.40,11.3,778.00,1.2
2020-07-05,01:45:00,DRY,3.90,19.50,10.5,778.00,1.1
2020-07-05,01:50:00,DRY,6.97,19.50,10.0,777.00,1.0
2020-07-05,01:55:00,DRY,5.55,19.70,9.0,777.00,1.2
2020-07-05,02:00:00,DRY,6.23,19.43,9.0,777.00,1.1
2020-07-05,02:05:00,DRY,5.50,19.45,9.0,777.00,1.0
2020-07-05,02:10:00,DRY,5.10,19.50,8.3,777.00,1.2
2020-07-05,02:15:00,DRY,5.90,19.30,8.5,777.00,1.2
2020-07-05,02:20:00,DRY,6.93,19.50,9.0,777.00,1.1
2020-07-05,02:25:00,DRY,6.30,19.60,9.0,777.00,1.1
2020-07-05,02:30:00,DRY,5.20,19.50,8.0,777.00,1.1
2020-07-05,02:35:00,DRY,5.35,19.35,8.5,777.00,1.3
2020-07-05,02:40:00,DRY,6.10,19.67,9.0,777.00,1.3
2020-07-05,02:45:00,DRY,5.80,19.60,9.0,777.00,1.5
2020-07-05,02:50:00,DRY,8.40,19.53,9.0,777.00,1.4
2020-07-05,02:55:00,DRY,6.70,19.55,9.0,777.00,1.4
2020-07-05,03:00:00,DRY,6.47,19.50,8.3,777.00,1.2
2020-07-05,03:05:00,DRY,5.65,19.40,9.0,777.00,1.0
2020-07-05,03:10:00,DRY,5.50,19.43,9.0,777.00,1.2
2020-07-05,03:15:00,DRY,5.30,19.40,9.5,777.00,1.4
2020-07-05,03:20:00,DRY,6.97,19.43,9.0,777.00,1.1
2020-07-05,03:25:00,DRY,6.45,19.50,9.0,777.00,0.9
2020-07-05,03:30:00,DRY,6.53,19.50,9.0,777.00,1.4
2020-07-05,03:35:00,DRY,8.10,19.65,9.0,777.00,1.3
2020-07-05,03:40:00,DRY,5.30,19.77,9.0,777.00,1.0
2020-07-05,03:45:00,DRY,4.60,19.65,9.0,777.00,0.7
2020-07-05,03:50:00,DRY,4.00,19.50,11.0,777.00,0.6
2020-07-05,03:55:00,DRY,4.95,19.40,10.0,777.00,1.0
2020-07-05,04:00:00,DRY,7.33,19.33,10.0,777.00,1.3
2020-07-05,04:05:00,DRY,5.60,19.35,10.0,777.00,1.2
2020-07-05,04:10:00,DRY,6.50,19.33,10.0,777.00,1.2
2020-07-05,04:15:00,DRY,7.50,19.40,10.0,777.00,1.3
2020-07-05,04:20:00,DRY,8.03,19.40,10.0,777.00,1.1
2020-07-05,04:25:00,DRY,6.80,19.45,10.0,777.00,1.4
2020-07-05,04:30:00,DRY,4.03,19.37,10.0,777.00,0.9
2020-07-05,04:35:00,DRY,6.35,19.35,10.0,776.50,1.0
2020-07-05,04:40:00,DRY,3.23,19.07,9.3,777.00,1.3
2020-07-05,04:45:00,DRY,5.25,19.05,10.5,777.00,1.1
2020-07-05,04:50:00,DRY,4.70,19.17,10.3,776.67,1.4
2020-07-05,04:55:00,DRY,4.90,19.10,10.0,776.50,1.2
2020-07-05,05:00:00,DRY,5.63,19.07,10.0,777.00,1.5
2020-07-05,05:05:00,DRY,5.05,18.80,10.0,777.00,1.5
2020-07-05,05:10:00,DRY,4.77,18.90,10.0,777.00,0.7
2020-07-05,05:15:00,DRY,4.10,19.00,10.0,777.00,1.2
2020-07-05,05:20:00,DRY,4.23,19.03,10.0,777.00,1.4
2020-07-05,05:25:00,DRY,3.85,19.05,10.0,777.00,1.4
2020-07-05,05:30:00,DRY,4.20,18.90,10.0,777.00,1.2
2020-07-05,05:35:00,DRY,6.30,18.95,11.0,777.00,1.2
2020-07-05,05:40:00,DRY,7.23,19.03,10.3,777.00,1.2
2020-07-05,05:45:00,DRY,4.90,18.95,10.0,777.00,0.9
2020-07-05,05:50:00,DRY,5.23,18.83,10.0,777.00,1.8
2020-07-05,05:55:00,DRY,3.65,18.75,10.0,777.00,1.4
2020-07-05,06:00:00,DRY,4.47,18.73,10.0,777.00,1.3
2020-07-05,06:05:00,DRY,5.75,18.70,10.0,777.00,2.1
2020-07-05,06:10:00,DRY,4.10,18.83,10.0,777.00,3.2
2020-07-05,06:15:00,DRY,5.45,19.00,10.5,777.00,4.5
2020-07-05,06:20:00,DRY,6.37,19.13,11.0,777.00,6.4
2020-07-05,06:25:00,DRY,6.30,19.15,10.5,777.00,10.2
2020-07-05,06:30:00,DRY,4.93,19.13,10.7,777.00,16.3
2020-07-05,06:35:00,DRY,4.55,19.20,10.5,777.00,24.1
2020-07-05,06:40:00,DRY,4.03,19.07,10.3,777.00,32.4
2020-07-05,06:45:00,DRY,4.10,19.10,10.0,777.00,43.2
2020-07-05,06:50:00,DRY,4.17,19.13,10.0,777.00,56.3
2020-07-05,06:55:00,DRY,6.15,19.20,10.0,777.00,71.0
2020-07-05,07:00:00,DRY,4.73,19.30,10.3,777.00,85.7
2020-07-05,07:05:00,DRY,5.60,19.25,10.5,777.00,103.5
2020-07-05,07:10:00,DRY,5.80,19.23,10.3,777.00,125.4
2020-07-05,07:15:00,DRY,6.45,19.25,10.0,777.00,146.2
2020-07-05,07:20:00,DRY,3.80,19.23,10.0,777.00,167.4
2020-07-05,07:25:00,DRY,6.40,19.25,10.0,777.00,186.6
2020-07-05,07:30:00,DRY,5.67,19.33,10.0,777.00,208.0
2020-07-05,07:35:00,DRY,4.55,19.25,10.0,777.00,229.1
2020-07-05,07:40:00,DRY,5.17,19.23,9.7,777.00,249.8
2020-07-05,07:45:00,DRY,5.45,19.25,10.0,777.00,273.2
2020-07-05,07:50:00,DRY,2.20,19.33,10.0,777.00,296.0
2020-07-05,07:55:00,DRY,6.60,19.30,10.5,777.00,320.9
2020-07-05,08:00:00,DRY,4.73,19.40,11.0,777.00,343.8
2020-07-05,08:05:00,DRY,6.15,19.45,11.0,777.00,368.4
2020-07-05,08:10:00,DRY,3.73,19.57,11.0,777.00,391.1
2020-07-05,08:15:00,DRY,4.45,19.65,11.0,777.00,414.6
2020-07-05,08:20:00,DRY,4.77,19.70,11.0,777.00,439.1
2020-07-05,08:25:00,DRY,5.85,19.75,11.5,777.00,462.6
2020-07-05,08:30:00,DRY,4.50,19.83,11.3,777.00,479.8
2020-07-05,08:35:00,DRY,3.65,19.80,12.0,777.00,502.4
2020-07-05,08:40:00,DRY,5.47,19.93,12.0,777.00,525.2
2020-07-05,08:45:00,DRY,3.85,20.00,12.0,777.00,544.6
2020-07-05,08:50:00,DRY,3.27,20.00,11.7,777.00,566.9
2020-07-05,08:55:00,DRY,3.40,20.05,12.0,777.00,588.7
2020-07-05,09:00:00,DRY,3.57,20.23,11.7,777.00,609.1
2020-07-05,09:05:00,DRY,4.50,20.35,12.0,777.00,628.4
2020-07-05,09:10:00,DRY,3.63,20.23,11.0,777.33,647.4
2020-07-05,09:15:00,DRY,4.35,20.40,12.0,777.50,666.6
2020-07-05,09:20:00,DRY,3.33,20.40,12.0,777.33,685.3
2020-07-05,09:25:00,DRY,2.90,20.60,13.0,778.00,704.1
2020-07-05,09:30:00,DRY,3.63,20.80,12.7,778.00,723.8
2020-07-05,09:35:00,DRY,6.00,20.75,12.5,778.00,740.6
2020-07-05,09:40:00,DRY,4.10,20.67,13.0,777.67,759.6
2020-07-05,09:45:00,DRY,3.20,20.90,14.0,778.00,777.0
2020-07-05,09:50:00,DRY,4.40,21.17,14.0,778.00,796.2
2020-07-05,09:55:00,DRY,4.70,21.10,13.5,778.00,815.5
2020-07-05,10:00:00,DRY,4.37,21.07,13.7,778.00,830.1
2020-07-05,10:05:00,DRY,3.85,21.30,14.5,778.00,844.6
2020-07-05,10:10:00,DRY,5.50,21.20,14.0,778.00,860.9
2020-07-05,10:15:00,DRY,6.35,21.25,14.0,778.00,878.6
2020-07-05,10:20:00,DRY,4.87,21.57,15.0,778.00,892.9
2020-07-05,10:25:00,DRY,3.25,21.70,15.0,778.00,906.2
2020-07-05,10:30:00,DRY,3.00,21.73,14.7,778.00,922.9
2020-07-05,10:35:00,DRY,3.65,21.65,15.0,778.00,936.5
2020-07-05,10:40:00,DRY,4.73,21.73,15.0,778.00,949.2
2020-07-05,10:45:00,DRY,4.10,21.90,15.0,778.00,964.2
2020-07-05,10:50:00,DRY,6.00,21.93,15.0,778.00,977.7
2020-07-05,10:55:00,DRY,6.50,22.05,15.0,778.00,989.5
2020-07-05,11:00:00,DRY,3.87,22.13,15.3,778.00,999.7
2020-07-05,11:05:00,DRY,4.15,21.95,14.5,778.00,1012.8
2020-07-05,11:10:00,DRY,5.27,21.90,15.3,778.00,1021.7
2020-07-05,11:15:00,DRY,6.00,21.95,15.0,778.00,1033.6
2020-07-05,11:20:00,DRY,3.55,22.15,15.0,778.00,1047.1
2020-07-05,11:25:00,DRY,2.00,22.15,15.0,778.00,1053.8
2020-07-05,11:30:00,DRY,5.23,22.17,15.0,778.00,1063.7
2020-07-05,11:35:00,DRY,2.15,22.60,15.0,778.00,1071.0
2020-07-05,11:40:00,DRY,4.67,22.30,15.7,778.00,1079.3
2020-07-05,11:45:00,DRY,5.35,22.55,15.0,778.00,1086.5
2020-07-05,11:50:00,DRY,4.43,22.47,15.7,778.00,1093.1
2020-07-05,11:55:00,DRY,3.50,22.60,16.0,778.00,1098.7
2020-07-05,12:00:00,DRY,5.67,22.37,15.7,778.00,1103.4
2020-07-05,12:05:00,DRY,5.45,22.65,15.0,778.00,1110.8
2020-07-05,12:10:00,DRY,4.53,22.17,15.7,778.00,1112.9
2020-07-05,12:15:00,DRY,4.30,22.60,15.5,778.00,1121.5
2020-07-05,12:20:00,DRY,3.50,22.73,15.7,778.00,1126.7
2020-07-05,12:25:00,DRY,4.65,22.40,16.0,778.00,1132.5
2020-07-05,12:30:00,DRY,4.50,22.67,15.0,778.00,1137.6
2020-07-05,12:35:00,DRY,5.65,22.60,15.0,778.00,1140.8
2020-07-05,12:40:00,DRY,3.83,22.97,15.3,778.00,1141.3
2020-07-05,12:45:00,DRY,6.20,23.00,15.5,778.00,1143.8
2020-07-05,12:50:00,DRY,3.07,22.97,15.3,778.00,1147.0
2020-07-05,12:55:00,DRY,6.15,23.05,15.0,778.00,1148.8
2020-07-05,13:00:00,DRY,2.80,22.97,15.3,778.00,1148.2
2020-07-05,13:05:00,DRY,3.80,22.90,15.5,778.00,1145.6
2020-07-05,13:10:00,DRY,2.43,23.03,15.7,778.00,1146.5
2020-07-05,13:15:00,DRY,2.85,23.00,15.5,778.00,1147.0
2020-07-05,13:20:00,DRY,4.80,23.20,16.5,778.00,1145.5
2020-07-05,13:25:00,DRY,3.00,23.20,16.0,778.00,1149.0
2020-07-05,13:30:00,DRY,5.70,23.80,16.0,778.00,1144.1
2020-07-05,13:35:00,DRY,3.20,22.80,20.0,778.00,1158.2
2020-07-05,13:40:00,DRY,3.53,22.97,18.7,778.00,1129.8
2020-07-05,13:45:00,DRY,3.95,23.45,17.5,778.00,1159.5
2020-07-05,13:50:00,DRY,2.43,23.00,16.3,778.00,1151.2
2020-07-05,13:55:00,DRY,2.95,23.35,18.5,778.00,1141.2
2020-07-05,14:00:00,DRY,2.53,23.33,17.3,778.00,1140.6
2020-07-05,14:05:00,DRY,3.30,22.90,18.5,778.00,1136.5
2020-07-05,14:10:00,DRY,3.17,22.50,21.7,778.00,1128.6
2020-07-05,14:15:00,DRY,3.50,22.90,17.5,778.00,1126.5
2020-07-05,14:20:00,DRY,3.03,23.20,16.7,778.00,1119.8
2020-07-05,14:25:00,DRY,4.10,23.85,16.0,778.00,1111.8
2020-07-05,14:30:00,DRY,2.07,23.33,18.0,778.00,1105.0
2020-07-05,14:35:00,DRY,2.50,23.40,18.0,778.00,1101.3
2020-07-05,14:40:00,DRY,2.17,23.70,16.7,778.00,1088.3
2020-07-05,14:45:00,DRY,2.75,23.65,16.5,778.00,1079.1
2020-07-05,14:50:00,DRY,2.97,24.33,18.3,778.00,1075.2
2020-07-05,14:55:00,DRY,2.05,23.35,20.0,778.00,1063.7
2020-07-05,15:00:00,DRY,1.40,22.97,22.0,778.00,1049.9
2020-07-05,15:05:00,DRY,2.60,23.10,20.5,778.00,1049.6
2020-07-05,15:10:00,DRY,1.67,22.27,21.7,778.00,1040.5
2020-07-05,15:15:00,DRY,1.45,23.35,19.0,778.00,1028.1
2020-07-05,15:20:00,DRY,2.33,23.43,18.0,778.00,1048.4
2020-07-05,15:25:00,DRY,1.30,23.15,18.0,778.00,1059.5
2020-07-05,15:30:00,DRY,2.00,23.20,20.7,778.00,1053.4
2020-07-05,15:35:00,DRY,1.65,22.60,22.0,778.00,829.4
2020-07-05,15:40:00,DRY,2.63,22.07,24.0,778.00,896.6
2020-07-05,15:45:00,DRY,1.50,22.05,22.5,778.00,850.0
2020-07-05,15:50:00,DRY,1.87,22.27,21.0,778.00,807.7
2020-07-05,15:55:00,DRY,1.25,22.05,21.5,778.00,995.1
2020-07-05,16:00:00,DRY,2.27,22.70,20.0,778.00,863.2
2020-07-05,16:05:00,DRY,1.00,22.95,19.0,778.00,802.5
2020-07-05,16:10:00,DRY,2.27,23.07,18.7,778.00,738.0
2020-07-05,16:15:00,DRY,3.05,23.20,18.5,778.00,895.6
2020-07-05,16:20:00,DRY,2.63,22.93,17.3,778.00,826.7
2020-07-05,16:25:00,DRY,4.05,22.55,17.5,778.00,872.8
2020-07-05,16:30:00,DRY,2.47,22.97,19.3,778.00,749.9
2020-07-05,16:35:00,DRY,2.50,22.75,17.5,778.00,527.5
2020-07-05,16:40:00,DRY,2.10,22.37,18.0,778.00,491.3
2020-07-05,16:45:00,DRY,2.60,22.75,19.5,778.00,781.5
2020-07-05,16:50:00,DRY,1.30,22.77,17.7,778.00,742.5
2020-07-05,16:55:00,DRY,3.35,22.80,17.5,778.00,601.4
2020-07-05,17:00:00,DRY,2.23,22.77,18.0,778.00,696.7
2020-07-05,17:05:00,DRY,2.55,22.55,19.0,778.00,463.9
2020-07-05,17:10:00,DRY,2.50,22.23,19.7,778.00,556.4
2020-07-05,17:15:00,DRY,0.70,22.10,19.0,778.00,646.9
2020-07-05,17:20:00,DRY,1.83,22.40,19.3,778.00,474.8
2020-07-05,17:25:00,DRY,2.30,22.55,18.5,778.00,517.8
2020-07-05,17:30:00,DRY,1.90,22.13,18.3,778.00,401.2
2020-07-05,17:35:00,DRY,2.70,22.30,18.5,778.00,559.8
2020-07-05,17:40:00,DRY,1.53,22.30,18.3,778.00,538.3
2020-07-05,17:45:00,DRY,1.95,22.00,18.5,778.00,521.9
2020-07-05,17:50:00,DRY,1.60,21.83,18.7,778.00,498.5
2020-07-05,17:55:00,DRY,2.55,22.00,18.5,778.00,477.4
2020-07-05,18:00:00,DRY,3.07,21.93,19.0,778.00,455.9
2020-07-05,18:05:00,DRY,2.40,21.95,18.0,778.00,433.4
2020-07-05,18:10:00,DRY,1.67,21.80,18.7,778.00,409.1
2020-07-05,18:15:00,DRY,1.70,21.85,18.0,778.00,388.2
2020-07-05,18:20:00,DRY,2.70,21.80,18.3,778.00,366.1
2020-07-05,18:25:00,DRY,2.15,21.85,18.0,778.00,345.1
2020-07-05,18:30:00,DRY,2.00,21.83,18.0,778.00,322.9
2020-07-05,18:35:00,DRY,1.40,21.55,17.5,778.00,301.2
2020-07-05,18:40:00,DRY,2.27,21.57,18.0,778.00,279.4
2020-07-05,18:45:00,DRY,1.95,21.90,17.5,778.00,258.6
2020-07-05,18:50:00,DRY,2.93,21.53,17.3,778.00,235.2
2020-07-05,18:55:00,DRY,2.05,21.45,17.5,778.00,214.9
2020-07-05,19:00:00,DRY,1.93,21.40,18.0,778.00,195.7
2020-07-05,19:05:00,DRY,1.70,21.25,18.0,778.00,175.7
2020-07-05,19:10:00,DRY,2.07,21.40,17.7,778.00,156.6
2020-07-05,19:15:00,DRY,1.45,21.15,17.5,778.00,137.5
2020-07-05,19:20:00,DRY,1.23,21.07,18.0,778.00,119.0
2020-07-05,19:25:00,DRY,1.95,21.05,18.0,778.00,104.5
2020-07-05,19:30:00,DRY,1.87,20.93,18.0,778.00,87.7
2020-07-05,19:35:00,DRY,1.70,20.85,18.0,778.00,72.7
2020-07-05,19:40:00,DRY,2.17,20.73,18.0,778.00,58.8
2020-07-05,19:45:00,DRY,2.70,20.65,18.5,778.00,47.8
2020-07-05,19:50:00,DRY,2.73,20.63,18.0,778.00,37.4
2020-07-05,19:55:00,DRY,2.30,20.60,18.0,778.00,28.2
2020-07-05,20:00:00,DRY,2.37,20.57,18.3,778.00,19.9
2020-07-05,20:05:00,DRY,2.60,20.40,19.0,778.00,13.9
2020-07-05,20:10:00,DRY,2.67,20.40,18.0,778.00,8.0
2020-07-05,20:15:00,DRY,2.40,20.35,18.0,778.00,5.4
2020-07-05,20:20:00,DRY,2.53,20.37,18.0,778.00,3.9
2020-07-05,20:25:00,DRY,1.95,20.30,18.0,778.00,2.6
2020-07-05,20:30:00,DRY,2.53,20.20,18.0,778.00,2.2
2020-07-05,20:35:00,DRY,2.20,20.20,18.5,778.00,2.0
2020-07-05,20:40:00,DRY,2.07,20.20,18.0,778.00,1.2
2020-07-05,20:45:00,DRY,3.35,20.20,18.0,778.00,1.7
2020-07-05,20:50:00,DRY,1.90,20.20,18.0,778.00,1.1
2020-07-05,20:55:00,DRY,2.35,20.15,18.0,778.00,0.8
2020-07-05,21:00:00,DRY,2.50,20.20,18.0,778.00,1.8
2020-07-05,21:05:00,DRY,3.90,20.15,18.0,778.00,1.0
2020-07-05,21:10:00,DRY,4.03,20.20,18.0,778.00,1.1
2020-07-05,21:15:00,DRY,5.10,20.30,18.0,778.00,1.4
2020-07-05,21:20:00,DRY,4.37,20.27,18.0,778.33,1.2
2020-07-05,21:25:00,DRY,3.45,20.30,18.5,778.50,1.4
2020-07-05,21:30:00,DRY,4.83,20.33,18.0,778.67,1.3
2020-07-05,21:35:00,DRY,5.20,20.30,18.0,778.50,1.1
2020-07-05,21:40:00,DRY,3.60,20.33,19.0,778.67,1.4
2020-07-05,21:45:00,DRY,3.40,20.40,19.0,778.50,1.4
2020-07-05,21:50:00,DRY,4.43,20.30,18.7,778.00,1.1
2020-07-05,21:55:00,DRY,2.50,20.30,19.0,779.00,1.6
2020-07-05,22:00:00,DRY,3.77,20.33,18.3,779.00,1.1
2020-07-05,22:05:00,DRY,4.30,20.35,18.5,779.00,1.3
2020-07-05,22:10:00,DRY,4.20,20.37,19.0,778.67,1.4
2020-07-05,22:15:00,DRY,4.65,20.40,18.5,779.00,1.3
2020-07-05,22:20:00,DRY,3.53,20.27,18.7,779.00,1.4
2020-07-05,22:25:00,DRY,3.20,20.15,19.0,779.00,1.5
2020-07-05,22:30:00,DRY,3.60,20.27,19.0,779.00,1.4
2020-07-05,22:35:00,DRY,3.10,20.20,18.5,779.00,0.6
2020-07-05,22:40:00,DRY,4.90,20.23,19.0,779.00,1.0
2020-07-05,22:45:00,DRY,4.70,20.30,19.0,779.00,1.1
2020-07-05,22:50:00,DRY,4.60,20.23,18.7,779.00,1.1
2020-07-05,22:55:00,DRY,4.55,20.20,18.0,779.00,1.2
2020-07-05,23:00:00,DRY,3.80,20.17,18.0,779.00,1.4
2020-07-05,23:05:00,DRY,3.65,20.10,18.0,779.00,1.4
2020-07-05,23:10:00,DRY,3.90,20.03,18.0,779.00,1.2
2020-07-05,23:15:00,DRY,4.65,19.90,18.0,779.00,1.1
2020-07-05,23:20:00,DRY,2.90,19.90,18.0,779.00,1.4
2020-07-05,23:25:00,DRY,2.90,19.90,18.0,779.00,2.4
2020-07-05,23:30:00,DRY,4.00,19.90,18.0,779.00,1.4
2020-07-05,23:35:00,DRY,5.00,19.95,18.0,779.00,1.2
2020-07-05,23:40:00,DRY,4.83,20.10,18.0,779.00,1.7
2020-07-05,23:45:00,DRY,4.95,20.00,18.0,779.00,1.7
2020-07-05,23:50:00,DRY,5.60,19.97,18.3,779.00,1.7
2020-07-05,23:55:00,DRY,5.60,19.95,18.0,779.00,0.9
2020-07-06,00:00:00,DRY,4.77,19.93,18.3,779.00,1.3
2020-07-06,00:05:00,DRY,4.30,19.90,19.0,779.00,0.8
2020-07-06,00:10:00,DRY,5.03,19.93,19.0,779.00,1.0
2020-07-06,00:15:00,DRY,4.40,20.05,18.5,779.00,1.4
2020-07-06,00:20:00,DRY,5.37,20.00,18.3,778.67,1.2
2020-07-06,00:25:00,DRY,5.05,20.10,19.0,779.00,1.2
2020-07-06,00:30:00,DRY,4.20,20.00,18.7,778.67,1.7
2020-07-06,00:35:00,DRY,4.70,19.85,18.0,779.00,0.9
2020-07-06,00:40:00,DRY,5.20,19.73,18.0,778.33,1.2
2020-07-06,00:45:00,DRY,4.25,19.70,18.5,778.00,1.4
2020-07-06,00:50:00,DRY,3.80,19.87,19.0,778.00,1.0
2020-07-06,00:55:00,DRY,4.30,19.95,19.0,778.00,1.1
2020-07-06,01:00:00,DRY,4.23,20.03,19.3,778.00,1.0
2020-07-06,01:05:00,DRY,4.65,20.15,20.0,778.00,0.9
2020-07-06,01:10:00,DRY,6.27,20.33,19.7,778.00,1.1
2020-07-06,01:15:00,DRY,4.50,20.25,20.0,778.00,0.9
2020-07-06,01:20:00,DRY,5.10,20.33,19.3,778.00,1.4
2020-07-06,01:25:00,DRY,4.90,20.30,19.0,778.00,1.4
2020-07-06,01:30:00,DRY,5.60,20.47,18.0,778.00,1.1
2020-07-06,01:35:00,DRY,5.25,20.55,18.0,778.00,1.1
2020-07-06,01:40:00,DRY,3.90,20.43,18.0,778.00,1.0
2020-07-06,01:45:00,DRY,3.75,20.35,18.5,778.00,0.3
2020-07-06,01:50:00,DRY,4.37,20.40,18.0,778.00,0.9
2020-07-06,01:55:00,DRY,4.85,20.45,18.0,778.00,1.0
2020-07-06,02:00:00,DRY,3.90,20.40,18.0,778.00,1.4
2020-07-06,02:05:00,DRY,5.50,20.45,18.0,778.00,1.1
2020-07-06,02:10:00,DRY,4.87,20.40,18.0,778.00,1.3
2020-07-06,02:15:00,DRY,3.60,20.30,18.0,778.00,1.2
2020-07-06,02:20:00,DRY,3.47,20.27,18.0,778.00,0.4
2020-07-06,02:25:00,DRY,5.40,20.25,18.0,778.00,1.0
2020-07-06,02:30:00,DRY,5.23,20.40,18.0,778.00,1.1
2020-07-06,02:35:00,DRY,4.50,20.50,18.0,778.00,1.1
2020-07-06,02:40:00,DRY,4.50,20.43,18.0,778.00,1.2
2020-07-06,02:45:00,DRY,4.70,20.20,18.0,778.00,1.0
2020-07-06,02:50:00,DRY,5.50,20.33,18.7,778.00,1.1
2020-07-06,02:55:00,DRY,5.15,20.40,18.0,778.00,1.1
2020-07-06,03:00:00,DRY,5.27,20.40,18.0,777.67,0.9
2020-07-06,03:05:00,DRY,5.20,20.40,18.5,777.50,1.1
2020-07-06,03:10:00,DRY,3.70,20.40,18.7,777.33,1.0
2020-07-06,03:15:00,DRY,4.85,20.40,18.5,777.50,1.2
2020-07-06,03:20:00,DRY,3.57,20.40,19.0,777.33,1.1
2020-07-06,03:25:00,DRY,6.20,20.60,19.0,777.00,1.2
2020-07-06,03:30:00,DRY,2.47,20.53,18.3,777.00,2.0
2020-07-06,03:35:00,DRY,3.80,20.50,19.5,777.00,1.4
2020-07-06,03:40:00,DRY,4.00,20.47,18.7,777.00,1.3
2020-07-06,03:45:00,DRY,2.80,20.35,19.0,777.00,0.8
2020-07-06,03:50:00,DRY,2.90,20.43,19.0,777.00,1.2
2020-07-06,03:55:00,DRY,4.35,20.50,19.5,777.00,1.3
2020-07-06,04:00:00,DRY,3.30,20.60,19.0,777.00,0.8
2020-07-06,04:05:00,DRY,5.65,20.55,19.0,777.00,1.2
2020-07-06,04:10:00,DRY,5.00,20.60,19.3,777.00,1.1
2020-07-06,04:15:00,DRY,4.00,20.65,19.5,777.00,0.4
2020-07-06,04:20:00,DRY,4.50,20.50,19.0,777.00,1.4
2020-07-06,04:25:00,DRY,2.90,20.45,19.5,777.00,1.2
2020-07-06,04:30:00,DRY,4.60,20.47,19.0,777.00,1.3
2020-07-06,04:35:00,DRY,4.45,20.35,19.0,777.00,0.9
2020-07-06,04:40:00,DRY,4.07,20.40,19.0,777.00,1.4
2020-07-06,04:45:00,DRY,5.30,20.45,19.0,777.00,1.2
2020-07-06,04:50:00,DRY,4.00,20.50,20.0,777.00,1.2
2020-07-06,04:55:00,DRY,4.30,20.25,20.0,777.00,0.8
2020-07-06,05:00:00,DRY,4.13,20.43,19.7,777.00,0.7
2020-07-06,05:05:00,DRY,4.40,20.40,20.0,777.00,1.6
2020-07-06,05:10:00,DRY,5.67,20.40,20.0,777.00,1.7
2020-07-06,05:15:00,DRY,6.00,20.45,20.0,777.00,1.2
2020-07-06,05:20:00,DRY,4.47,20.60,20.0,777.00,1.9
2020-07-06,05:25:00,DRY,3.45,20.50,20.0,777.00,1.7
2020-07-06,05:30:00,DRY,4.90,20.53,20.0,777.00,1.1
2020-07-06,05:35:00,DRY,4.85,20.50,20.0,777.00,1.1
2020-07-06,05:40:00,DRY,5.27,20.40,20.0,777.00,1.4
2020-07-06,05:45:00,DRY,4.55,20.45,20.0,777.00,1.1
2020-07-06,05:50:00,DRY,5.13,20.33,20.0,777.00,1.3
2020-07-06,05:55:00,DRY,5.05,20.35,19.5,777.00,1.2
2020-07-06,06:00:00,DRY,5.63,20.23,20.0,777.00,0.9
2020-07-06,06:05:00,DRY,6.05,20.25,19.0,777.00,1.4
2020-07-06,06:10:00,DRY,4.10,20.27,19.0,777.33,2.3
2020-07-06,06:15:00,DRY,4.75,20.15,19.5,777.00,3.5
2020-07-06,06:20:00,DRY,4.43,20.37,19.3,777.33,5.4
2020-07-06,06:25:00,DRY,4.20,20.15,20.0,777.00,8.9
2020-07-06,06:30:00,DRY,4.10,20.37,20.0,777.33,13.0
2020-07-06,06:35:00,DRY,4.85,20.35,20.0,778.00,20.4
2020-07-06,06:40:00,DRY,5.87,20.57,20.0,777.67,30.2
2020-07-06,06:45:00,DRY,4.25,20.50,20.0,778.00,39.1
2020-07-06,06:50:00,DRY,4.63,20.47,19.7,778.00,49.6
2020-07-06,06:55:00,DRY,4.05,20.45,20.0,778.00,63.1
2020-07-06,07:00:00,DRY,4.60,20.43,19.7,778.00,82.6
2020-07-06,07:05:00,DRY,4.20,20.50,20.0,778.00,104.3
2020-07-06,07:10:00,DRY,2.93,20.67,20.0,778.00,119.5
2020-07-06,07:15:00,DRY,3.85,20.65,20.0,778.00,133.8
2020-07-06,07:20:00,DRY,3.67,20.70,20.0,778.00,128.7
2020-07-06,07:25:00,DRY,4.25,20.65,20.0,778.00,121.8
2020-07-06,07:30:00,DRY,3.63,20.67,20.0,778.00,163.1
2020-07-06,07:35:00,DRY,3.70,20.75,20.0,778.00,169.4
2020-07-06,07:40:00,DRY,3.40,20.77,20.3,778.00,185.6
2020-07-06,07:45:00,DRY,3.40,20.80,21.0,778.00,154.2
2020-07-06,07:50:00,DRY,4.43,20.83,20.7,778.00,185.8
2020-07-06,07:55:00,DRY,3.60,20.85,20.0,778.00,180.1
2020-07-06,08:00:00,DRY,3.50,20.87,20.0,778.00,226.8
2020-07-06,08:05:00,DRY,4.35,20.90,20.0,778.00,231.8
2020-07-06,08:10:00,DRY,3.63,21.10,20.0,778.00,319.0
2020-07-06,08:15:00,DRY,3.65,21.15,20.0,778.00,301.9
2020-07-06,08:20:00,DRY,3.00,21.23,19.7,778.00,333.5
2020-07-06,08:25:00,DRY,2.75,21.35,20.0,778.00,357.4
2020-07-06,08:30:00,DRY,3.23,21.33,19.7,778.00,430.8
2020-07-06,08:35:00,DRY,3.00,21.35,20.0,778.00,314.6
2020-07-06,08:40:00,DRY,2.23,21.47,19.0,778.00,433.9
2020-07-06,08:45:00,DRY,3.35,21.65,19.0,778.00,380.8
2020-07-06,08:50:00,DRY,2.43,21.57,19.0,778.00,447.3
2020-07-06,08:55:00,DRY,3.00,21.75,19.5,778.00,498.9
2020-07-06,09:00:00,DRY,1.70,21.87,19.0,778.00,586.2
2020-07-06,09:05:00,DRY,1.35,22.20,19.0,778.00,601.5
2020-07-06,09:10:00,DRY,1.40,22.60,18.7,778.00,639.2
2020-07-06,09:15:00,DRY,1.00,22.45,18.0,778.00,635.5
2020-07-06,09:20:00,DRY,1.40,22.80,18.7,778.00,575.1
2020-07-06,09:25:00,DRY,1.10,22.60,18.5,778.00,685.7
2020-07-06,09:30:00,DRY,0.80,23.37,18.0,778.00,660.7
2020-07-06,09:35:00,DRY,0.70,23.15,17.5,778.00,726.7
2020-07-06,09:40:00,DRY,1.17,23.03,17.0,778.00,747.9
2020-07-06,09:45:00,DRY,1.65,22.75,18.0,778.00,764.5
2020-07-06,09:50:00,DRY,1.00,22.97,18.3,778.00,782.2
2020-07-06,09:55:00,DRY,0.45,23.30,17.5,778.00,804.2
2020-07-06,10:00:00,DRY,2.17,23.87,19.3,778.00,810.0
2020-07-06,10:05:00,DRY,3.45,23.00,18.0,778.00,829.1
2020-07-06,10:10:00,DRY,1.27,23.00,17.0,778.00,841.6
2020-07-06,10:15:00,DRY,1.15,23.05,17.0,778.00,857.6
2020-07-06,10:20:00,DRY,1.07,23.57,18.3,778.00,874.5
2020-07-06,10:25:00,DRY,1.95,24.50,17.5,778.00,893.9
2020-07-06,10:30:00,DRY,1.87,23.73,16.3,778.00,908.2
2020-07-06,10:35:00,DRY,2.65,24.00,18.5,778.00,920.0
2020-07-06,10:40:00,DRY,1.10,24.50,18.0,778.00,934.6
2020-07-06,10:45:00,DRY,1.75,23.85,17.0,778.00,947.2
2020-07-06,10:50:00,DRY,2.33,24.23,17.0,778.00,961.8
2020-07-06,10:55:00,DRY,2.50,24.05,17.0,778.00,975.3
2020-07-06,11:00:00,DRY,1.80,24.07,18.7,778.00,987.5
2020-07-06,11:05:00,DRY,2.25,24.95,20.0,778.00,1001.2
2020-07-06,11:10:00,DRY,0.73,24.07,20.3,778.00,1017.6
2020-07-06,11:15:00,DRY,2.80,24.60,23.0,778.00,1022.8
2020-07-06,11:20:00,DRY,1.77,24.37,21.3,778.00,1030.8
2020-07-06,11:25:00,DRY,1.25,24.05,20.5,778.00,1042.3
2020-07-06,11:30:00,DRY,1.87,24.37,20.0,778.00,1051.0
2020-07-06,11:35:00,DRY,1.55,24.40,21.5,778.50,1063.3
2020-07-06,11:40:00,DRY,1.10,25.27,19.0,778.33,1070.2
2020-07-06,11:45:00,DRY,2.10,25.20,21.5,778.00,1076.8
2020-07-06,11:50:00,DRY,2.30,25.43,20.3,778.00,1085.6
2020-07-06,11:55:00,DRY,2.05,25.25,20.0,778.00,1096.5
2020-07-06,12:00:00,DRY,2.27,24.67,21.3,778.00,1100.5
2020-07-06,12:05:00,DRY,2.00,24.75,19.5,778.00,1107.2
2020-07-06,12:10:00,DRY,2.27,24.87,21.0,778.33,1110.0
2020-07-06,12:15:00,DRY,1.85,25.00,21.5,779.00,1114.2
2020-07-06,12:20:00,DRY,2.00,24.90,21.7,779.00,1123.0
2020-07-06,12:25:00,DRY,2.35,25.05,21.5,779.00,1122.3
2020-07-06,12:30:00,DRY,1.93,24.93,21.0,779.00,1129.0
2020-07-06,12:35:00,DRY,2.00,25.05,19.0,778.50,1129.2
2020-07-06,12:40:00,DRY,1.80,25.47,20.0,779.00,1135.1
2020-07-06,12:45:00,DRY,2.05,25.20,19.5,778.50,1135.0
2020-07-06,12:50:00,DRY,2.27,24.37,20.0,778.33,1138.9
2020-07-06,12:55:00,DRY,2.05,24.35,21.5,779.00,1136.7
2020-07-06,13:00:00,DRY,2.27,25.03,18.7,779.00,1144.5
2020-07-06,13:05:00,DRY,1.80,24.40,19.0,779.00,1142.4
2020-07-06,13:10:00,DRY,0.97,25.10,18.0,779.00,1146.9
2020-07-06,13:15:00,DRY,1.85,25.45,18.5,779.00,1148.5
2020-07-06,13:20:00,DRY,1.70,24.73,19.0,778.33,1146.9
2020-07-06,13:25:00,DRY,2.20,25.15,18.5,779.00,1146.5
2020-07-06,13:30:00,DRY,2.80,25.10,19.0,779.00,1141.8